contact:dominique.lefevre@mio.osupytheas.fr, maurice.libes@osupytheas.fr, didier.mallarino@osupytheas.fr
Project:EMSO http://www.emso-fr.org/EMSO-France
Depth: 2436.0 m
Title:EMSO Ligure Ouest : Data MII capteur CSTAR
DateTime,Latitude,Longitude,Instrument_Serial,Reference_Counts,Signal_Counts,Corrected_Signal_raw_counts,Calculated_Beam_c_inverse_meters,Internal_thermistor_counts
DateTime,Latitude,Longitude,Instrument_Serial,Reference_Counts,Signal_Counts,Corrected_Signal_raw_counts,Calculated_Beam_c_inverse_meters,Internal_thermistor_counts
2021-04-17T00:01:51,42.805,6.029,CST-1368DR,5533,7726,14999,0.161,551
2021-04-17T00:04:52,42.805,6.029,CST-1368DR,5533,7726,15000,0.161,551
2021-04-17T00:07:54,42.805,6.029,CST-1368DR,5533,7726,14999,0.161,551
2021-04-17T00:10:55,42.805,6.029,CST-1368DR,5533,7726,14999,0.161,551
2021-04-17T00:13:57,42.805,6.029,CST-1368DR,5533,7726,14999,0.161,551
2021-04-17T00:16:59,42.805,6.029,CST-1368DR,5533,7727,15000,0.161,551
2021-04-17T00:20:00,42.805,6.029,CST-1368DR,5533,7727,15000,0.161,551
2021-04-17T00:23:02,42.805,6.029,CST-1368DR,5533,7727,15001,0.161,551
2021-04-17T00:26:03,42.805,6.029,CST-1368DR,5532,7724,14997,0.162,551
2021-04-17T00:29:05,42.805,6.029,CST-1368DR,5533,7726,15000,0.161,551
2021-04-17T00:32:06,42.805,6.029,CST-1368DR,5533,7727,15002,0.160,551
2021-04-17T00:35:08,42.805,6.029,CST-1368DR,5532,7726,15001,0.161,551
2021-04-17T00:38:10,42.805,6.029,CST-1368DR,5533,7728,15002,0.160,551
2021-04-17T00:41:11,42.805,6.029,CST-1368DR,5533,7727,15000,0.161,551
2021-04-17T00:44:13,42.805,6.029,CST-1368DR,5533,7727,15001,0.161,551
2021-04-17T00:47:14,42.805,6.029,CST-1368DR,5533,7726,14999,0.161,551
2021-04-17T00:50:16,42.805,6.029,CST-1368DR,5533,7727,15000,0.161,551
2021-04-17T00:53:17,42.805,6.029,CST-1368DR,5533,7723,14994,0.163,551
2021-04-17T00:56:19,42.805,6.029,CST-1368DR,5533,7728,15002,0.160,551
2021-04-17T00:59:21,42.805,6.029,CST-1368DR,5532,7728,15005,0.160,551
2021-04-17T01:02:22,42.805,6.029,CST-1368DR,5532,7728,15005,0.160,551
2021-04-17T01:05:24,42.805,6.029,CST-1368DR,5532,7728,15005,0.160,551
2021-04-17T01:08:25,42.805,6.029,CST-1368DR,5532,7727,15004,0.160,551
2021-04-17T01:11:27,42.805,6.029,CST-1368DR,5532,7728,15005,0.160,551
2021-04-17T01:14:29,42.805,6.029,CST-1368DR,5532,7722,14994,0.163,551
2021-04-17T01:17:30,42.805,6.029,CST-1368DR,5532,7729,15007,0.159,551
2021-04-17T01:20:32,42.805,6.029,CST-1368DR,5532,7725,14999,0.161,551
2021-04-17T01:23:33,42.805,6.029,CST-1368DR,5532,7729,15007,0.159,551
2021-04-17T01:26:35,42.805,6.029,CST-1368DR,5532,7728,15006,0.159,551
2021-04-17T01:29:36,42.805,6.029,CST-1368DR,5532,7727,15004,0.160,551
2021-04-17T01:32:38,42.805,6.029,CST-1368DR,5532,7728,15005,0.160,551
2021-04-17T01:35:40,42.805,6.029,CST-1368DR,5532,7728,15005,0.160,551
2021-04-17T01:38:41,42.805,6.029,CST-1368DR,5532,7729,15007,0.159,551
2021-04-17T01:41:43,42.805,6.029,CST-1368DR,5532,7728,15006,0.159,551
2021-04-17T01:44:44,42.805,6.029,CST-1368DR,5532,7729,15007,0.159,551
2021-04-17T01:47:46,42.805,6.029,CST-1368DR,5533,7728,15003,0.160,551
2021-04-17T01:50:48,42.805,6.029,CST-1368DR,5532,7728,15005,0.160,551
2021-04-17T01:53:49,42.805,6.029,CST-1368DR,5532,7728,15006,0.159,551
2021-04-17T01:56:51,42.805,6.029,CST-1368DR,5532,7729,15007,0.159,551
2021-04-17T01:59:52,42.805,6.029,CST-1368DR,5532,7728,15005,0.160,551
2021-04-17T02:02:54,42.805,6.029,CST-1368DR,5532,7728,15006,0.159,551
2021-04-17T02:05:55,42.805,6.029,CST-1368DR,5532,7729,15007,0.159,551
2021-04-17T02:08:57,42.805,6.029,CST-1368DR,5532,7727,15004,0.160,551
2021-04-17T02:11:59,42.805,6.029,CST-1368DR,5532,7727,15004,0.160,551
2021-04-17T02:15:00,42.805,6.029,CST-1368DR,5532,7725,14999,0.161,551
2021-04-17T02:18:02,42.805,6.029,CST-1368DR,5532,7726,15002,0.160,550
2021-04-17T02:21:03,42.805,6.029,CST-1368DR,5532,7728,15005,0.160,551
2021-04-17T02:24:05,42.805,6.029,CST-1368DR,5532,7726,15002,0.160,551
2021-04-17T02:27:07,42.805,6.029,CST-1368DR,5532,7725,15000,0.161,551
2021-04-17T02:30:08,42.805,6.029,CST-1368DR,5532,7726,15002,0.160,551
2021-04-17T02:33:10,42.805,6.029,CST-1368DR,5532,7727,15004,0.160,551
2021-04-17T02:36:11,42.805,6.029,CST-1368DR,5532,7726,15002,0.160,551
2021-04-17T02:39:13,42.805,6.029,CST-1368DR,5532,7727,15003,0.160,551
2021-04-17T02:42:14,42.805,6.029,CST-1368DR,5532,7727,15004,0.160,551
2021-04-17T02:45:16,42.805,6.029,CST-1368DR,5532,7727,15003,0.160,551
2021-04-17T02:48:18,42.805,6.029,CST-1368DR,5532,7726,15001,0.161,551
2021-04-17T02:51:19,42.805,6.029,CST-1368DR,5532,7727,15003,0.160,551
2021-04-17T02:54:21,42.805,6.029,CST-1368DR,5532,7726,15002,0.160,551
2021-04-17T02:57:22,42.805,6.029,CST-1368DR,5532,7727,15003,0.160,551
2021-04-17T03:00:24,42.805,6.029,CST-1368DR,5532,7726,15002,0.160,551
2021-04-17T03:03:25,42.805,6.029,CST-1368DR,5532,7727,15004,0.160,551
2021-04-17T03:06:27,42.805,6.029,CST-1368DR,5532,7727,15003,0.160,551
2021-04-17T03:09:29,42.805,6.029,CST-1368DR,5532,7726,15001,0.161,551
2021-04-17T03:12:30,42.805,6.029,CST-1368DR,5532,7726,15001,0.161,551
2021-04-17T03:15:32,42.805,6.029,CST-1368DR,5532,7725,14999,0.161,551
2021-04-17T03:18:33,42.805,6.029,CST-1368DR,5532,7726,15001,0.161,551
2021-04-17T03:21:35,42.805,6.029,CST-1368DR,5532,7724,14999,0.161,551
2021-04-17T03:24:37,42.805,6.029,CST-1368DR,5532,7726,15001,0.161,551
2021-04-17T03:27:38,42.805,6.029,CST-1368DR,5532,7726,15001,0.161,551
2021-04-17T03:30:40,42.805,6.029,CST-1368DR,5532,7725,14999,0.161,551
2021-04-17T03:33:41,42.805,6.029,CST-1368DR,5532,7724,14999,0.161,551
2021-04-17T03:36:43,42.805,6.029,CST-1368DR,5532,7725,15000,0.161,551
2021-04-17T03:39:44,42.805,6.029,CST-1368DR,5532,7725,14999,0.161,551
2021-04-17T03:42:46,42.805,6.029,CST-1368DR,5532,7725,15000,0.161,551
2021-04-17T03:45:48,42.805,6.029,CST-1368DR,5532,7723,14997,0.162,551
2021-04-17T03:48:49,42.805,6.029,CST-1368DR,5532,7723,14995,0.162,551
2021-04-17T03:51:51,42.805,6.029,CST-1368DR,5532,7725,15000,0.161,551
2021-04-17T03:54:52,42.805,6.029,CST-1368DR,5532,7722,14995,0.162,551
2021-04-17T03:57:54,42.805,6.029,CST-1368DR,5532,7722,14995,0.162,551
2021-04-17T04:00:56,42.805,6.029,CST-1368DR,5532,7724,14997,0.162,551
2021-04-17T04:03:57,42.805,6.029,CST-1368DR,5532,7724,14997,0.162,551
2021-04-17T04:06:59,42.805,6.029,CST-1368DR,5532,7724,14999,0.161,551
2021-04-17T04:10:00,42.805,6.029,CST-1368DR,5532,7725,15000,0.161,551
2021-04-17T04:13:02,42.805,6.029,CST-1368DR,5532,7726,15001,0.161,551
2021-04-17T04:16:03,42.805,6.029,CST-1368DR,5532,7726,15002,0.160,551
2021-04-17T04:19:05,42.805,6.029,CST-1368DR,5532,7726,15002,0.160,551
2021-04-17T04:22:07,42.805,6.029,CST-1368DR,5532,7725,15000,0.161,551
2021-04-17T04:25:08,42.805,6.029,CST-1368DR,5532,7725,15000,0.161,551
2021-04-17T04:28:10,42.805,6.029,CST-1368DR,5532,7726,15001,0.161,551
2021-04-17T04:31:11,42.805,6.029,CST-1368DR,5532,7724,14998,0.162,551
2021-04-17T04:34:13,42.805,6.029,CST-1368DR,5532,7726,15001,0.161,551
2021-04-17T04:37:14,42.805,6.029,CST-1368DR,5532,7726,15002,0.160,551
2021-04-17T04:40:16,42.805,6.029,CST-1368DR,5532,7721,14992,0.163,551
2021-04-17T04:43:18,42.805,6.029,CST-1368DR,5532,7726,15002,0.160,551
2021-04-17T04:46:19,42.805,6.029,CST-1368DR,5532,7726,15001,0.161,551
2021-04-17T04:49:21,42.805,6.029,CST-1368DR,5532,7726,15001,0.161,551
2021-04-17T04:52:22,42.805,6.029,CST-1368DR,5532,7724,14999,0.161,551
2021-04-17T04:55:24,42.805,6.029,CST-1368DR,5532,7726,15002,0.160,551
2021-04-17T04:58:26,42.805,6.029,CST-1368DR,5532,7726,15002,0.160,551
2021-04-17T05:01:27,42.805,6.029,CST-1368DR,5532,7727,15003,0.160,551
2021-04-17T05:04:29,42.805,6.029,CST-1368DR,5532,7726,15001,0.161,551
2021-04-17T05:07:30,42.805,6.029,CST-1368DR,5532,7727,15004,0.160,551
2021-04-17T05:10:32,42.805,6.029,CST-1368DR,5532,7727,15003,0.160,551
2021-04-17T05:13:33,42.805,6.029,CST-1368DR,5532,7725,15000,0.161,551
2021-04-17T05:16:35,42.805,6.029,CST-1368DR,5532,7721,14991,0.163,551
2021-04-17T05:19:37,42.805,6.029,CST-1368DR,5532,7726,15002,0.160,551
2021-04-17T05:22:38,42.805,6.029,CST-1368DR,5532,7726,15002,0.160,550
2021-04-17T05:25:40,42.805,6.029,CST-1368DR,5532,7727,15003,0.160,551
2021-04-17T05:28:41,42.805,6.029,CST-1368DR,5532,7727,15003,0.160,551
2021-04-17T05:31:43,42.805,6.029,CST-1368DR,5532,7725,15000,0.161,551
2021-04-17T05:34:44,42.805,6.029,CST-1368DR,5532,7727,15003,0.160,551
2021-04-17T05:37:46,42.805,6.029,CST-1368DR,5532,7727,15003,0.160,551
2021-04-17T05:40:48,42.805,6.029,CST-1368DR,5532,7728,15005,0.160,551
2021-04-17T05:43:49,42.805,6.029,CST-1368DR,5532,7727,15004,0.160,551
2021-04-17T05:46:51,42.805,6.029,CST-1368DR,5532,7727,15003,0.160,551
2021-04-17T05:49:52,42.805,6.029,CST-1368DR,5532,7728,15005,0.160,551
2021-04-17T05:52:54,42.805,6.029,CST-1368DR,5532,7727,15004,0.160,551
2021-04-17T05:55:56,42.805,6.029,CST-1368DR,5532,7726,15002,0.160,551
2021-04-17T05:58:57,42.805,6.029,CST-1368DR,5532,7726,15002,0.160,551
2021-04-17T06:01:59,42.805,6.029,CST-1368DR,5532,7727,15003,0.160,551
2021-04-17T06:05:00,42.805,6.029,CST-1368DR,5532,7726,15002,0.160,551
2021-04-17T06:08:02,42.805,6.029,CST-1368DR,5532,7727,15003,0.160,551
2021-04-17T06:11:03,42.805,6.029,CST-1368DR,5532,7726,15002,0.160,551
2021-04-17T06:14:05,42.805,6.029,CST-1368DR,5532,7725,15000,0.161,551
2021-04-17T06:17:07,42.805,6.029,CST-1368DR,5532,7727,15004,0.160,551
2021-04-17T06:20:08,42.805,6.029,CST-1368DR,5532,7727,15004,0.160,551
2021-04-17T06:23:10,42.805,6.029,CST-1368DR,5532,7727,15003,0.160,551
2021-04-17T06:26:11,42.805,6.029,CST-1368DR,5532,7727,15004,0.160,551
2021-04-17T06:29:13,42.805,6.029,CST-1368DR,5532,7726,15001,0.161,551
2021-04-17T06:32:15,42.805,6.029,CST-1368DR,5532,7727,15004,0.160,551
2021-04-17T06:35:16,42.805,6.029,CST-1368DR,5532,7727,15003,0.160,551
2021-04-17T06:38:18,42.805,6.029,CST-1368DR,5532,7728,15005,0.160,551
2021-04-17T06:41:19,42.805,6.029,CST-1368DR,5532,7727,15003,0.160,551
2021-04-17T06:44:21,42.805,6.029,CST-1368DR,5532,7723,14996,0.162,551
2021-04-17T06:47:22,42.805,6.029,CST-1368DR,5532,7728,15005,0.160,551
2021-04-17T06:50:24,42.805,6.029,CST-1368DR,5532,7729,15007,0.159,551
2021-04-17T06:53:26,42.805,6.029,CST-1368DR,5532,7728,15006,0.159,551
2021-04-17T06:56:27,42.805,6.029,CST-1368DR,5532,7726,15002,0.160,551
2021-04-17T06:59:29,42.805,6.029,CST-1368DR,5532,7715,14981,0.166,551
2021-04-17T07:02:30,42.805,6.029,CST-1368DR,5532,7728,15005,0.160,551
2021-04-17T07:05:32,42.805,6.029,CST-1368DR,5532,7727,15003,0.160,551
2021-04-17T07:08:34,42.805,6.029,CST-1368DR,5532,7727,15004,0.160,551
2021-04-17T07:11:35,42.805,6.029,CST-1368DR,5532,7727,15004,0.160,551
2021-04-17T07:14:37,42.805,6.029,CST-1368DR,5532,7729,15007,0.159,551
2021-04-17T07:17:38,42.805,6.029,CST-1368DR,5532,7727,15003,0.160,551
2021-04-17T07:20:40,42.805,6.029,CST-1368DR,5532,7726,15002,0.160,551
2021-04-17T07:23:41,42.805,6.029,CST-1368DR,5532,7728,15005,0.160,551
2021-04-17T07:26:43,42.805,6.029,CST-1368DR,5532,7728,15005,0.160,551
2021-04-17T07:29:45,42.805,6.029,CST-1368DR,5532,7729,15007,0.159,551
2021-04-17T07:32:46,42.805,6.029,CST-1368DR,5532,7729,15007,0.159,551
2021-04-17T07:35:48,42.805,6.029,CST-1368DR,5532,7728,15005,0.160,551
2021-04-17T07:38:49,42.805,6.029,CST-1368DR,5532,7727,15003,0.160,551
2021-04-17T07:41:51,42.805,6.029,CST-1368DR,5532,7728,15005,0.160,551
2021-04-17T07:44:52,42.805,6.029,CST-1368DR,5532,7727,15004,0.160,551
2021-04-17T07:47:54,42.805,6.029,CST-1368DR,5532,7729,15008,0.159,551
2021-04-17T07:50:56,42.805,6.029,CST-1368DR,5532,7729,15007,0.159,551
2021-04-17T07:53:57,42.805,6.029,CST-1368DR,5532,7726,15001,0.161,551
2021-04-17T07:56:59,42.805,6.029,CST-1368DR,5532,7729,15007,0.159,551
2021-04-17T08:00:00,42.805,6.029,CST-1368DR,5532,7728,15005,0.160,551
2021-04-17T08:03:02,42.805,6.029,CST-1368DR,5532,7728,15006,0.159,551
2021-04-17T08:06:04,42.805,6.029,CST-1368DR,5532,7728,15005,0.160,551
2021-04-17T08:09:05,42.805,6.029,CST-1368DR,5532,7728,15005,0.160,551
2021-04-17T08:12:07,42.805,6.029,CST-1368DR,5532,7729,15007,0.159,551
2021-04-17T08:15:08,42.805,6.029,CST-1368DR,5532,7730,15009,0.159,551
2021-04-17T08:18:10,42.805,6.029,CST-1368DR,5532,7728,15006,0.159,551
2021-04-17T08:21:11,42.805,6.029,CST-1368DR,5532,7728,15005,0.160,551
2021-04-17T08:24:13,42.805,6.029,CST-1368DR,5532,7729,15007,0.159,551
2021-04-17T08:27:15,42.805,6.029,CST-1368DR,5532,7727,15003,0.160,551
2021-04-17T08:30:16,42.805,6.029,CST-1368DR,5532,7728,15005,0.160,551
2021-04-17T08:33:18,42.805,6.029,CST-1368DR,5532,7727,15004,0.160,551
2021-04-17T08:36:19,42.805,6.029,CST-1368DR,5532,7729,15007,0.159,551
2021-04-17T08:39:21,42.805,6.029,CST-1368DR,5532,7727,15004,0.160,551
2021-04-17T08:42:23,42.805,6.029,CST-1368DR,5532,7729,15008,0.159,551
2021-04-17T08:45:24,42.805,6.029,CST-1368DR,5532,7729,15008,0.159,551
2021-04-17T08:48:26,42.805,6.029,CST-1368DR,5532,7729,15007,0.159,550
2021-04-17T08:51:27,42.805,6.029,CST-1368DR,5532,7729,15007,0.159,551
2021-04-17T08:54:29,42.805,6.029,CST-1368DR,5532,7729,15008,0.159,551
2021-04-17T08:57:30,42.805,6.029,CST-1368DR,5532,7730,15009,0.159,551
2021-04-17T09:00:32,42.805,6.029,CST-1368DR,5532,7729,15007,0.159,551
2021-04-17T09:03:34,42.805,6.029,CST-1368DR,5532,7728,15005,0.160,551
2021-04-17T09:06:35,42.805,6.029,CST-1368DR,5532,7726,15002,0.160,551
2021-04-17T09:09:37,42.805,6.029,CST-1368DR,5532,7729,15008,0.159,551
2021-04-17T09:12:38,42.805,6.029,CST-1368DR,5532,7729,15008,0.159,551
2021-04-17T09:15:40,42.805,6.029,CST-1368DR,5531,7727,15007,0.159,551
2021-04-17T09:18:42,42.805,6.029,CST-1368DR,5532,7729,15008,0.159,551
2021-04-17T09:21:43,42.805,6.029,CST-1368DR,5532,7727,15004,0.160,551
2021-04-17T09:24:45,42.805,6.029,CST-1368DR,5532,7727,15003,0.160,551
2021-04-17T09:27:46,42.805,6.029,CST-1368DR,5532,7730,15009,0.159,551
2021-04-17T09:30:48,42.805,6.029,CST-1368DR,5532,7730,15010,0.158,551
2021-04-17T09:33:49,42.805,6.029,CST-1368DR,5532,7728,15005,0.160,551
2021-04-17T09:36:51,42.805,6.029,CST-1368DR,5532,7729,15007,0.159,550
2021-04-17T09:39:53,42.805,6.029,CST-1368DR,5532,7730,15009,0.159,551
2021-04-17T09:42:54,42.805,6.029,CST-1368DR,5532,7729,15008,0.159,551
2021-04-17T09:45:56,42.805,6.029,CST-1368DR,5532,7730,15009,0.159,551
2021-04-17T09:48:57,42.805,6.029,CST-1368DR,5531,7728,15007,0.159,551
2021-04-17T09:51:59,42.805,6.029,CST-1368DR,5531,7730,15011,0.158,551
2021-04-17T09:55:00,42.805,6.029,CST-1368DR,5531,7730,15011,0.158,551
2021-04-17T09:58:02,42.805,6.029,CST-1368DR,5532,7728,15005,0.160,551
2021-04-17T10:01:04,42.805,6.029,CST-1368DR,5532,7730,15009,0.159,551
2021-04-17T10:04:05,42.805,6.029,CST-1368DR,5532,7729,15008,0.159,551
2021-04-17T10:07:07,42.805,6.029,CST-1368DR,5531,7730,15012,0.158,551
2021-04-17T10:10:08,42.805,6.029,CST-1368DR,5532,7730,15009,0.159,551
2021-04-17T10:13:10,42.805,6.029,CST-1368DR,5532,7729,15008,0.159,551
2021-04-17T10:16:12,42.805,6.029,CST-1368DR,5532,7730,15010,0.158,551
2021-04-17T10:19:13,42.805,6.029,CST-1368DR,5532,7730,15009,0.159,551
2021-04-17T10:22:15,42.805,6.029,CST-1368DR,5532,7730,15009,0.159,551
2021-04-17T10:25:16,42.805,6.029,CST-1368DR,5532,7729,15008,0.159,551
2021-04-17T10:28:18,42.805,6.029,CST-1368DR,5532,7730,15009,0.159,551
2021-04-17T10:31:19,42.805,6.029,CST-1368DR,5532,7729,15007,0.159,551
2021-04-17T10:34:21,42.805,6.029,CST-1368DR,5532,7730,15010,0.158,551
2021-04-17T10:37:23,42.805,6.029,CST-1368DR,5532,7731,15011,0.158,551
2021-04-17T10:40:24,42.805,6.029,CST-1368DR,5532,7731,15011,0.158,551
2021-04-17T10:43:26,42.805,6.029,CST-1368DR,5531,7731,15014,0.157,550
2021-04-17T10:46:27,42.805,6.029,CST-1368DR,5531,7730,15012,0.158,551
2021-04-17T10:49:29,42.805,6.029,CST-1368DR,5531,7729,15011,0.158,551
2021-04-17T10:52:31,42.805,6.029,CST-1368DR,5531,7731,15013,0.158,551
2021-04-17T10:55:32,42.805,6.029,CST-1368DR,5531,7730,15011,0.158,551
2021-04-17T10:58:34,42.805,6.029,CST-1368DR,5531,7730,15013,0.158,551
2021-04-17T11:01:35,42.805,6.029,CST-1368DR,5531,7731,15014,0.157,551
2021-04-17T11:04:37,42.805,6.029,CST-1368DR,5531,7729,15011,0.158,551
2021-04-17T11:07:38,42.805,6.029,CST-1368DR,5531,7729,15009,0.159,551
2021-04-17T11:10:40,42.805,6.029,CST-1368DR,5531,7730,15011,0.158,551
2021-04-17T11:13:42,42.805,6.029,CST-1368DR,5531,7730,15011,0.158,551
2021-04-17T11:16:43,42.805,6.029,CST-1368DR,5531,7726,15004,0.160,551
2021-04-17T11:19:45,42.805,6.029,CST-1368DR,5531,7730,15011,0.158,551
2021-04-17T11:22:46,42.805,6.029,CST-1368DR,5531,7730,15013,0.158,551
2021-04-17T11:25:48,42.805,6.029,CST-1368DR,5531,7731,15013,0.158,551
2021-04-17T11:28:49,42.805,6.029,CST-1368DR,5531,7731,15013,0.158,551
2021-04-17T11:31:51,42.805,6.029,CST-1368DR,5531,7731,15013,0.158,551
2021-04-17T11:34:53,42.805,6.029,CST-1368DR,5531,7729,15009,0.159,550
2021-04-17T11:37:54,42.805,6.029,CST-1368DR,5531,7730,15012,0.158,551
2021-04-17T11:40:56,42.805,6.029,CST-1368DR,5531,7731,15013,0.158,551
2021-04-17T11:43:57,42.805,6.029,CST-1368DR,5531,7730,15011,0.158,551
2021-04-17T11:46:59,42.805,6.029,CST-1368DR,5531,7730,15013,0.158,551
2021-04-17T11:50:01,42.805,6.029,CST-1368DR,5531,7730,15011,0.158,551
2021-04-17T11:53:02,42.805,6.029,CST-1368DR,5531,7731,15014,0.157,551
2021-04-17T11:56:04,42.805,6.029,CST-1368DR,5531,7730,15012,0.158,550
2021-04-17T11:59:05,42.805,6.029,CST-1368DR,5531,7731,15014,0.157,551
2021-04-17T12:02:07,42.805,6.029,CST-1368DR,5531,7730,15013,0.158,551
2021-04-17T12:05:08,42.805,6.029,CST-1368DR,5531,7731,15014,0.157,551
2021-04-17T12:08:10,42.805,6.029,CST-1368DR,5531,7730,15013,0.158,551
2021-04-17T12:11:12,42.805,6.029,CST-1368DR,5531,7730,15013,0.158,551
2021-04-17T12:14:13,42.805,6.029,CST-1368DR,5531,7731,15013,0.158,551
2021-04-17T12:17:15,42.805,6.029,CST-1368DR,5531,7731,15014,0.157,551
2021-04-17T12:20:16,42.805,6.029,CST-1368DR,5531,7731,15013,0.158,551
2021-04-17T12:23:18,42.805,6.029,CST-1368DR,5531,7731,15014,0.157,551
2021-04-17T12:26:20,42.805,6.029,CST-1368DR,5531,7730,15013,0.158,551
2021-04-17T12:29:21,42.805,6.029,CST-1368DR,5531,7730,15012,0.158,551
2021-04-17T12:32:23,42.805,6.029,CST-1368DR,5531,7728,15008,0.159,551
2021-04-17T12:35:24,42.805,6.029,CST-1368DR,5531,7730,15011,0.158,551
2021-04-17T12:38:26,42.805,6.029,CST-1368DR,5531,7731,15013,0.158,551
2021-04-17T12:41:27,42.805,6.029,CST-1368DR,5531,7730,15012,0.158,551
2021-04-17T12:44:29,42.805,6.029,CST-1368DR,5531,7729,15010,0.158,551
2021-04-17T12:47:31,42.805,6.029,CST-1368DR,5531,7729,15010,0.158,551
2021-04-17T12:50:32,42.805,6.029,CST-1368DR,5531,7730,15011,0.158,551
2021-04-17T12:53:34,42.805,6.029,CST-1368DR,5531,7730,15013,0.158,551
2021-04-17T12:56:35,42.805,6.029,CST-1368DR,5531,7730,15011,0.158,551
2021-04-17T12:59:37,42.805,6.029,CST-1368DR,5531,7727,15007,0.159,551
2021-04-17T13:02:38,42.805,6.029,CST-1368DR,5531,7730,15012,0.158,551
2021-04-17T13:05:40,42.805,6.029,CST-1368DR,5531,7729,15010,0.158,551
2021-04-17T13:08:42,42.805,6.029,CST-1368DR,5531,7730,15012,0.158,551
2021-04-17T13:11:43,42.805,6.029,CST-1368DR,5531,7730,15012,0.158,551
2021-04-17T13:14:45,42.805,6.029,CST-1368DR,5531,7730,15011,0.158,551
2021-04-17T13:17:46,42.805,6.029,CST-1368DR,5531,7729,15010,0.158,551
2021-04-17T13:20:48,42.805,6.029,CST-1368DR,5531,7731,15013,0.158,551
2021-04-17T13:23:50,42.805,6.029,CST-1368DR,5531,7730,15013,0.158,551
2021-04-17T13:26:51,42.805,6.029,CST-1368DR,5531,7730,15012,0.158,551
2021-04-17T13:29:53,42.805,6.029,CST-1368DR,5531,7730,15013,0.158,551
2021-04-17T13:32:54,42.805,6.029,CST-1368DR,5531,7731,15014,0.157,551
2021-04-17T13:35:56,42.805,6.029,CST-1368DR,5531,7730,15011,0.158,551
2021-04-17T13:38:57,42.805,6.029,CST-1368DR,5531,7730,15011,0.158,551
2021-04-17T13:41:59,42.805,6.029,CST-1368DR,5531,7730,15013,0.158,551
2021-04-17T13:45:01,42.805,6.029,CST-1368DR,5531,7730,15013,0.158,551
2021-04-17T13:48:02,42.805,6.029,CST-1368DR,5531,7730,15011,0.158,551
2021-04-17T13:51:04,42.805,6.029,CST-1368DR,5531,7730,15012,0.158,551
2021-04-17T13:54:05,42.805,6.029,CST-1368DR,5531,7730,15011,0.158,551
2021-04-17T13:57:07,42.805,6.029,CST-1368DR,5531,7730,15012,0.158,551
2021-04-17T14:00:09,42.805,6.029,CST-1368DR,5531,7730,15012,0.158,551
2021-04-17T14:03:10,42.805,6.029,CST-1368DR,5531,7729,15011,0.158,551
2021-04-17T14:06:12,42.805,6.029,CST-1368DR,5531,7729,15009,0.159,551
2021-04-17T14:09:13,42.805,6.029,CST-1368DR,5531,7730,15012,0.158,551
2021-04-17T14:12:15,42.805,6.029,CST-1368DR,5531,7730,15012,0.158,551
2021-04-17T14:15:16,42.805,6.029,CST-1368DR,5531,7730,15012,0.158,551
2021-04-17T14:18:18,42.805,6.029,CST-1368DR,5531,7729,15010,0.158,551
2021-04-17T14:21:20,42.805,6.029,CST-1368DR,5531,7730,15011,0.158,551
2021-04-17T14:24:21,42.805,6.029,CST-1368DR,5531,7729,15011,0.158,551
2021-04-17T14:27:23,42.805,6.029,CST-1368DR,5531,7729,15010,0.158,551
2021-04-17T14:30:24,42.805,6.029,CST-1368DR,5531,7730,15011,0.158,551
2021-04-17T14:33:26,42.805,6.029,CST-1368DR,5531,7726,15005,0.160,551
2021-04-17T14:36:27,42.805,6.029,CST-1368DR,5531,7730,15012,0.158,551
2021-04-17T14:39:29,42.805,6.029,CST-1368DR,5531,7729,15010,0.158,551
2021-04-17T14:42:31,42.805,6.029,CST-1368DR,5531,7728,15007,0.159,551
2021-04-17T14:45:32,42.805,6.029,CST-1368DR,5531,7729,15009,0.159,551
2021-04-17T14:48:34,42.805,6.029,CST-1368DR,5531,7726,15004,0.160,551
2021-04-17T14:51:35,42.805,6.029,CST-1368DR,5531,7730,15011,0.158,551
2021-04-17T14:54:37,42.805,6.029,CST-1368DR,5531,7729,15010,0.158,551
2021-04-17T14:57:39,42.805,6.029,CST-1368DR,5531,7729,15011,0.158,551
2021-04-17T15:00:40,42.805,6.029,CST-1368DR,5531,7730,15012,0.158,551
2021-04-17T15:03:42,42.805,6.029,CST-1368DR,5531,7730,15011,0.158,551
2021-04-17T15:06:43,42.805,6.029,CST-1368DR,5531,7730,15012,0.158,551
2021-04-17T15:09:45,42.805,6.029,CST-1368DR,5531,7729,15010,0.158,551
2021-04-17T15:12:46,42.805,6.029,CST-1368DR,5531,7730,15012,0.158,551
2021-04-17T15:15:48,42.805,6.029,CST-1368DR,5531,7729,15010,0.158,550
2021-04-17T15:18:50,42.805,6.029,CST-1368DR,5531,7730,15012,0.158,551
2021-04-17T15:21:51,42.805,6.029,CST-1368DR,5531,7730,15012,0.158,551
2021-04-17T15:24:53,42.805,6.029,CST-1368DR,5531,7730,15012,0.158,551
2021-04-17T15:27:54,42.805,6.029,CST-1368DR,5531,7730,15013,0.158,551
2021-04-17T15:30:56,42.805,6.029,CST-1368DR,5531,7730,15011,0.158,551
2021-04-17T15:33:57,42.805,6.029,CST-1368DR,5531,7729,15010,0.158,551
2021-04-17T15:36:59,42.805,6.029,CST-1368DR,5531,7728,15009,0.159,551
2021-04-17T15:40:01,42.805,6.029,CST-1368DR,5531,7729,15010,0.158,551
2021-04-17T15:43:02,42.805,6.029,CST-1368DR,5531,7729,15009,0.159,551
2021-04-17T15:46:04,42.805,6.029,CST-1368DR,5531,7729,15011,0.158,551
2021-04-17T15:49:05,42.805,6.029,CST-1368DR,5531,7729,15011,0.158,551
2021-04-17T15:52:07,42.805,6.029,CST-1368DR,5531,7729,15010,0.158,551
2021-04-17T15:55:09,42.805,6.029,CST-1368DR,5531,7730,15012,0.158,551
2021-04-17T15:58:10,42.805,6.029,CST-1368DR,5531,7729,15011,0.158,551
2021-04-17T16:01:12,42.805,6.029,CST-1368DR,5531,7730,15012,0.158,551
2021-04-17T16:04:13,42.805,6.029,CST-1368DR,5531,7728,15007,0.159,551
2021-04-17T16:07:15,42.805,6.029,CST-1368DR,5531,7730,15012,0.158,551
2021-04-17T16:10:16,42.805,6.029,CST-1368DR,5531,7730,15012,0.158,551
2021-04-17T16:13:18,42.805,6.029,CST-1368DR,5531,7729,15011,0.158,551
2021-04-17T16:16:20,42.805,6.029,CST-1368DR,5531,7728,15009,0.159,551
2021-04-17T16:19:21,42.805,6.029,CST-1368DR,5531,7729,15010,0.158,551
2021-04-17T16:22:23,42.805,6.029,CST-1368DR,5531,7730,15011,0.158,551
2021-04-17T16:25:24,42.805,6.029,CST-1368DR,5531,7730,15012,0.158,551
2021-04-17T16:28:26,42.805,6.029,CST-1368DR,5531,7730,15012,0.158,551
2021-04-17T16:31:27,42.805,6.029,CST-1368DR,5531,7731,15013,0.158,550
2021-04-17T16:34:29,42.805,6.029,CST-1368DR,5531,7730,15012,0.158,551
2021-04-17T16:37:31,42.805,6.029,CST-1368DR,5531,7730,15012,0.158,551
2021-04-17T16:40:32,42.805,6.029,CST-1368DR,5531,7727,15007,0.159,551
2021-04-17T16:43:34,42.805,6.029,CST-1368DR,5531,7730,15012,0.158,551
2021-04-17T16:46:35,42.805,6.029,CST-1368DR,5531,7730,15011,0.158,551
2021-04-17T16:49:37,42.805,6.029,CST-1368DR,5531,7730,15012,0.158,551
2021-04-17T16:52:39,42.805,6.029,CST-1368DR,5531,7729,15011,0.158,551